Oschersleben_MC
3.655 km / 2.271 mi

All Car Categories
Driver Car Server Time Gap Laps Date
RobZee_XR_ AMGT3 AMGT3 458 XFactorracing_S1 AM GT3 1:21.856 - 42 2018/11/09
Merlin AMGT3 AMGT3_CAMARO XFactorracing_S1 AM GT3 1:21.994 0.138 16 2018/11/10
Matthew Pluck AMGT3 AMGT3 Z06R XFactorracing_S1 AM GT3 1:22.089 0.233 15 2018/11/10
=Fieldzy= AMGT3 AMGT3 BENTLEY XFactorracing_S1 AM GT3 1:22.090 0.233 20 2018/11/11
HSVPETE AMGT3 AMGT3 MP412C XFactorracing_S1 AM GT3 1:22.132 0.275 36 2018/11/09
OR~KELVIN4TOR AMGT3 AMGT3_CAMARO XFactorracing_S1 AM GT3 1:22.452 0.596 15 2018/11/10
fez AMGT3 AMGT3 SLS XFactorracing_S1 AM GT3 1:22.481 0.625 55 2018/11/11
Supa AMGT3 AMGT3 458 XFactorracing_S1 AM GT3 1:23.393 1.536 8 2018/11/11
Stevo AMGT3 AMGT3 SLS XFactorracing_S1 AM GT3 1:23.586 1.730 29 2018/11/11
Rai120 AMGT3 AMGT3 BMW Z4 XFactorracing_S1 AM GT3 1:23.770 1.914 15 2018/11/07
ErikNZ AMGT3 AMGT3 BMW Z4 XFactorracing_S1 AM GT3 1:24.069 2.212 7 2018/11/10
Chrisrx AMGT3 AMGT3 SLS XFactorracing_S1 AM GT3 1:25.013 3.156 4 2018/11/10
OR~Dug AMGT3 AMGT3 BENTLEY XFactorracing_S1 AM GT3 1:26.149 4.293 5 2018/11/11
METAL666nz AMGT3 AMGT3 Z06R XFactorracing_S1 AM GT3 1:26.301 4.444 4 2018/11/09
Fastlane_Gaming_NZ AMGT3 AMGT3 799R XFactorracing_S1 AM GT3 1:26.470 4.614 6 2018/11/11
obbzy AMGT3 AMGT3 799R XFactorracing_S1 AM GT3 1:26.596 4.739 5 2018/11/10
=UleeDeway= AMGT3 AMGT3 Z06R XFactorracing_S1 AM GT3 1:26.617 4.760 7 2018/11/10
adamj1975 AMGT3 AMGT3 BENTLEY XFactorracing_S1 AM GT3 1:26.720 4.863 7 2018/11/10
******* AMGT3 AMGT3 BENTLEY XFactorracing_S1 AM GT3 1:26.746 4.889 2 2018/11/11
Gussy AMGT3 AMGT3 BENTLEY XFactorracing_S1 AM GT3 1:27.145 5.288 1 2018/11/09
TribuDeiChihuahua AMGT3 AMGT3 799R XFactorracing_S1 AM GT3 1:28.518 6.662 2 2018/11/11
Tig AMGT3 AMGT3 799R XFactorracing_S1 AM GT3 1:29.327 7.471 3 2018/11/11
GB AMGT3 AMGT3_CAMARO XFactorracing_S1 AM GT3 1:30.628 8.771 2 2018/11/10
Huzzy AMGT3 AMGT3 BMW Z4 XFactorracing_S1 AM GT3 1:32.099 10.242 1 2018/11/10
asracin AMGT3 AMGT3 BENTLEY XFactorracing_S1 AM GT3 1:36.517 14.660 12 2018/11/05
jase_bec AMGT3 AMGT3 BENTLEY XFactorracing_S1 AM GT3 1:46.201 24.344 2 2018/11/10

Are you sure?

This file will be moved to \r2la_temp